Location: Newark
(58.9986°N, 38.5006°E)
Time: 13:38:20
(UTC+00:00)

N. Korean satellite - Pass Details

Date: 17 December 2019
Orbit: 454 x 507 km, 97.2° (Epoch: 27 January)

Event Time Altitude Azimuth Distance (km) Brightness Sun altitude
Rises 01:57:53 0° 29° (NNE) 2,541 10.6 -30.6°
Reaches altitude 10° 02:01:43 10° 72° (ENE) 1,638 10.1 -30.1°
Maximum altitude 02:02:23 10° 83° (E) 1,608 10.1 -30.0°
Drops below altitude 10° 02:03:04 10° 94° (E) 1,630 10.1 -29.9°
Sets 02:06:49 0° 137° (SE) 2,485 10.7 -29.4°
